Regional Weather Roundup
Issued by NWS New Orleans/Baton Rouge, LA

Home | Current Version | Previous Version | Text Only | Print | Product List | Glossary Off
Versions: 1 2 3 4 5 6 7 8 9 10 11 12 13 14 15 16 17 18 19 20 21 22 23 24 25 26 27 28 29 30 31 32 33 34 35 36 37 38 39 40 41 42 43 44 45 46 47 48 49 50

266
ASUS44 KLIX 220301
RWRLIX
NEW ORLEANS REGIONAL WEATHER ROUNDUP
NATIONAL WEATHER SERVICE NEW ORLEANS LA
1000 PM CDT THU AUG 21 2014

NOTE: "FAIR" INDICATES FEW OR NO CLOUDS BELOW 12,000 FEET WITH NO
      SIGNIFICANT WEATHER AND/OR OBSTRUCTIONS TO VISIBILITY.
      SKY/WX - SKY CONDITION AND SIGNIFICANT WEATHER.
      TMP - AIR TEMPERATURE.     DP    - DEWPOINT TEMPERATURE.
      RH  - RELATIVE HUMIDITY.   PRES  - PRESSURE.
      HI  - HEAT INDEX.          WCI   - WIND CHILL INDEX.

*  THESE STATIONS ARE NOT NWS OR FAA STATIONS AND ARE NOT UNDER
   NWS QUALITY CONTROL.

LAZ038-040-048-061>063-065>067-069-220400-
SOUTHEAST LOUISIANA

CITY           SKY/WX    TMP DP  RH WIND       PRES   REMARKS
N.O. AUDUBON   NOT AVBL
N.O. INTL ARPT CLOUDY    79  72  79 CALM      30.11S
N.O. LAKEFRONT CLOUDY    81  75  82 NW5       30.12S
N.O. DOWNTOWN*   N/A     82  70  65 CALM      30.12F
SLIDELL        CLOUDY    80  74  81 CALM      30.11R
BATON ROUGE    MOCLDY    76  74  93 CALM      30.11F
BOOTHVILLE     PTCLDY    84  78  82 CALM      30.12S HX  95
BELLE CHASSE   CLOUDY    76  73  91 SW3       30.11S
BOGALUSA*        N/A     81  73  78 CALM      30.12F
GALLIANO*      NOT AVBL
NEW ROADS*       N/A     75  73  95 CALM      30.12F
GONZALES*        N/A     76  76 100 CALM      30.11F
HAMMOND*       NOT AVBL
HOUMA*         CLOUDY    76  72  87 CALM      30.12S
PORT FOURCHON* CLOUDY    82  75  78 W6        30.14S

$$

MSZ070-080>082-220400-
SOUTHERN MISSISSIPPI

CITY           SKY/WX    TMP DP  RH WIND       PRES   REMARKS
MCCOMB         CLOUDY    77  74  90 CALM      30.12S
GULFPORT       MOCLDY    83  76  79 W5        30.09F
BILOXI         PTCLDY    85  77  78 W6        30.10S HX  95
PASCAGOULA     CLEAR     78  76  93 CALM      30.11R

$$

COASTAL OBSERVATIONS
LAKE AND NEARSHORE STATIONS

STATION/POSITION TIME  TEMP    WIND        PRES    WAVE
                       AIR SEA DIR/SP/G            HT/PER
                 (UTC) (F)     (DEG/KT/KT) (MB)    (FT/S)
PASCAGOULA       0200   87     220/  6/ 10 1019.0
WAVELAND YACHT   0200   83     290/  3/  4 1018.9
GRAND ISLE       0200   85 90  330/  5/  6 1020.8
SOUTHWEST PASS   0200   85 88  310/  1/  2 1020.4
NEW CANAL        0200   83 85  230/  2/  2 1020.2
SHELL BEACH      0200   81 82  240/  5/  6 1019.6

OFFSHORE STATIONS

STATION/POSITION TIME  TEMP    WIND        PRES    WAVE
                       AIR SEA DIR/SP/G            HT/PER
                 (UTC) (F)     (DEG/KT/KT) (MB)    (FT/S)
64 S DAUPHIN ISL 0241   86 89  280/  4/  4 1020.6

$$




USA.gov is the U.S. government's official web portal to all federal, state and local government web resources and services.